Staples, MN

5:29 AM CDT on March 29, 2017 (GMT -0500)
Staples Municipal

Weather History for KSAZ - March, 2013

Change the Weather History Date:

Tuesday, March 26, 2013

  Actual Average Record
Temperature  
Mean Temperature 18 °F -  
Max Temperature 33 °F 41 °F 75 °F (2007)
Min Temperature 3 °F 22 °F 1 °F (2001)
Degree Days  
Heating Degree Days 47    
Moisture  
Dew Point 11 °F    
Average Humidity 76    
Maximum Humidity 100    
Minimum Humidity 51    
Precipitation  
Precipitation 0.00 in - - ()
Sea Level Pressure  
Sea Level Pressure 30.26 in    
Wind  
Wind Speed 4 mph (WNW)    
Max Wind Speed 7 mph    
Max Gust Speed -    
Visibility 10 miles    
Events      
Averages and records for this station are not official NWS values.
T = Trace of Precipitation, MM = Missing Value Source: NWS Daily Summary

Daily Weather History Graph

Daily Weather History Graph

Search for Another Location

Airport or City:

Trip Planner

Search our weather history database for the weather conditions in past years. The results will help you decide how hot, cold, wet, or windy it might be!

Date:

Astronomy

Mar. 26, 2013 Rise Set
Actual Time 7:09 AM CDT 7:40 PM CDT
Civil Twilight 6:39 AM CDT 8:10 PM CDT
Nautical Twilight 6:04 AM CDT 8:46 PM CDT
Astronomical Twilight 5:27 AM CDT 9:23 PM CDT
Moon 7:19 PM CDT (3/26) 6:28 AM CDT (3/26)
Length of Visible Light 13h 30m
Length of Day
12h 30m
Waxing Gibbous, 99% of the Moon is Illuminated
Mar 26
Waxing Gibbous
Mar 27
Full
Apr 2
Last Quarter
Apr 10
New
Apr 18
First Quarter

Hourly Weather History & Observations

Time (CDT) Temp. Windchill Dew Point Humidity Pressure Visibility Wind Dir Wind Speed Gust Speed Precip Events Conditions
12:14 AM 15.8 °F 7.2 °F 12.2 °F 86% 30.25 in 10.0 mi WNW 5.8 mph - N/A   Clear
12:33 AM 15.8 °F 6.1 °F 12.2 °F 86% 30.25 in 10.0 mi WNW 6.9 mph - N/A   Clear
12:53 AM 15.8 °F 6.1 °F 12.2 °F 86% 30.25 in 10.0 mi WNW 6.9 mph - N/A   Clear
1:14 AM 14.0 °F 5.1 °F 10.4 °F 86% 30.25 in 10.0 mi WNW 5.8 mph - N/A   Clear
1:33 AM 10.4 °F 2.2 °F 8.6 °F 92% 30.25 in 10.0 mi WNW 4.6 mph - N/A   Clear
1:53 AM 10.4 °F 0.8 °F 8.6 °F 92% 30.26 in 10.0 mi WNW 5.8 mph - N/A   Clear
2:14 AM 8.6 °F 0.1 °F 6.8 °F 92% 30.25 in 10.0 mi WNW 4.6 mph - N/A   Clear
2:33 AM 8.6 °F -1.3 °F 6.8 °F 92% 30.25 in 10.0 mi WNW 5.8 mph - N/A   Scattered Clouds
2:53 AM 8.6 °F 0.1 °F 8.6 °F 100% 30.25 in 10.0 mi WNW 4.6 mph - N/A   Mostly Cloudy
3:13 AM 12.2 °F 2.9 °F 10.4 °F 92% 30.25 in 10.0 mi WNW 5.8 mph - N/A   Overcast
3:33 AM 12.2 °F 2.9 °F 10.4 °F 92% 30.25 in 10.0 mi WNW 5.8 mph - N/A   Overcast
3:53 AM 10.4 °F 0.8 °F 8.6 °F 92% 30.25 in 10.0 mi WNW 5.8 mph - N/A   Overcast
4:13 AM 10.4 °F -0.4 °F 8.6 °F 92% 30.25 in 10.0 mi WNW 6.9 mph - N/A   Overcast
4:34 AM 10.4 °F 0.8 °F 8.6 °F 92% 30.25 in 10.0 mi WNW 5.8 mph - N/A   Mostly Cloudy
4:53 AM 8.6 °F 0.1 °F 6.8 °F 92% 30.25 in 10.0 mi WNW 4.6 mph - N/A   Mostly Cloudy
5:13 AM 6.8 °F -2.0 °F 6.8 °F 100% 30.25 in 10.0 mi WNW 4.6 mph - N/A   Mostly Cloudy
5:34 AM 6.8 °F -4.8 °F 5.0 °F 92% 30.25 in 10.0 mi WNW 6.9 mph - N/A   Mostly Cloudy
5:53 AM 6.8 °F -2.0 °F 5.0 °F 92% 30.26 in 10.0 mi WNW 4.6 mph - N/A   Mostly Cloudy
6:13 AM 6.8 °F -2.0 °F 5.0 °F 92% 30.25 in 10.0 mi West 4.6 mph - N/A   Scattered Clouds
6:34 AM 5.0 °F -4.1 °F 3.2 °F 92% 30.26 in 10.0 mi West 4.6 mph - N/A   Mostly Cloudy
6:53 AM 3.2 °F -6.2 °F 1.4 °F 92% 30.27 in 10.0 mi WNW 4.6 mph - N/A   Scattered Clouds
7:13 AM 3.2 °F -4.2 °F 1.4 °F 92% 30.27 in 10.0 mi WNW 3.5 mph - N/A   Clear
7:34 AM 3.2 °F -4.2 °F 1.4 °F 92% 30.27 in 10.0 mi WNW 3.5 mph - N/A   Clear
7:53 AM 5.0 °F -2.1 °F 1.4 °F 85% 30.27 in 10.0 mi WNW 3.5 mph - N/A   Clear
8:13 AM 3.2 °F -4.2 °F 1.4 °F 92% 30.28 in 10.0 mi WNW 3.5 mph - N/A   Clear
8:34 AM 6.8 °F - 3.2 °F 85% 30.28 in 10.0 mi Calm Calm - N/A   Clear
8:53 AM 8.6 °F - 6.8 °F 92% 30.28 in 10.0 mi Calm Calm - N/A   Clear
9:13 AM 8.6 °F 0.1 °F 6.8 °F 92% 30.28 in 10.0 mi West 4.6 mph - N/A   Clear
9:34 AM 10.4 °F 2.2 °F 6.8 °F 85% 30.28 in 10.0 mi West 4.6 mph - N/A   Clear
9:53 AM 12.2 °F 4.3 °F 8.6 °F 85% 30.28 in 10.0 mi West 4.6 mph - N/A   Clear
10:13 AM 14.0 °F 6.5 °F 8.6 °F 79% 30.28 in 10.0 mi West 4.6 mph - N/A   Clear
10:34 AM 15.8 °F 8.6 °F 10.4 °F 79% 30.29 in 10.0 mi West 4.6 mph - N/A   Clear
10:53 AM 17.6 °F 10.7 °F 10.4 °F 73% 30.28 in 10.0 mi West 4.6 mph - N/A   Clear
11:13 AM 17.6 °F 10.7 °F 12.2 °F 79% 30.28 in 10.0 mi West 4.6 mph - N/A   Clear
11:34 AM 19.4 °F 12.8 °F 12.2 °F 74% 30.28 in 10.0 mi West 4.6 mph - N/A   Clear
11:53 AM 21.2 °F 14.9 °F 12.2 °F 68% 30.28 in 10.0 mi West 4.6 mph - N/A   Clear
12:13 PM 23.0 °F - 15.8 °F 74% 30.28 in 10.0 mi Calm Calm - N/A   Clear
12:34 PM 24.8 °F - 15.8 °F 69% 30.28 in 10.0 mi Calm Calm - N/A   Clear
12:53 PM 26.6 °F 21.2 °F 15.8 °F 64% 30.27 in 10.0 mi West 4.6 mph - N/A   Clear
1:14 PM 28.4 °F - 15.8 °F 59% 30.27 in 10.0 mi Calm Calm - N/A   Clear
1:33 PM 30.2 °F - 17.6 °F 60% 30.27 in 10.0 mi Calm Calm - N/A   Clear
1:53 PM 30.2 °F 26.7 °F 17.6 °F 60% 30.26 in 10.0 mi West 3.5 mph - N/A   Clear
2:14 PM 32.0 °F - 17.6 °F 55% 30.26 in 10.0 mi Calm Calm - N/A   Clear
2:33 PM 33.8 °F 29.6 °F 17.6 °F 52% 30.26 in 10.0 mi West 4.6 mph - N/A   Clear
2:53 PM 33.8 °F 29.6 °F 17.6 °F 52% 30.26 in 10.0 mi West 4.6 mph - N/A   Clear
3:14 PM 33.8 °F 28.6 °F 17.6 °F 52% 30.26 in 10.0 mi West 5.8 mph - N/A   Clear
3:33 PM 33.8 °F 27.7 °F 17.6 °F 52% 30.25 in 10.0 mi West 6.9 mph - N/A   Clear
3:53 PM 33.8 °F 29.6 °F 17.6 °F 52% 30.25 in 10.0 mi West 4.6 mph - N/A   Clear
4:14 PM 33.8 °F 29.6 °F 17.6 °F 52% 30.25 in 10.0 mi West 4.6 mph - N/A   Clear
4:33 PM 33.8 °F 28.6 °F 17.6 °F 52% 30.24 in 10.0 mi West 5.8 mph - N/A   Clear
4:53 PM 33.8 °F 30.8 °F 17.6 °F 52% 30.24 in 10.0 mi West 3.5 mph - N/A   Clear
5:14 PM 33.8 °F 29.6 °F 19.4 °F 56% 30.24 in 10.0 mi West 4.6 mph - N/A   Clear
5:33 PM 33.8 °F 28.6 °F 17.6 °F 52% 30.24 in 10.0 mi West 5.8 mph - N/A   Clear
5:53 PM 32.0 °F 27.5 °F 19.4 °F 60% 30.24 in 10.0 mi WNW 4.6 mph - N/A   Clear
6:14 PM 30.2 °F - 17.6 °F 60% 30.24 in 10.0 mi Calm Calm - N/A   Clear
6:33 PM 32.0 °F - 15.8 °F 51% 30.24 in 10.0 mi Calm Calm - N/A   Clear
6:53 PM 28.4 °F 24.6 °F 17.6 °F 64% 30.24 in 10.0 mi West 3.5 mph - N/A   Clear
7:13 PM 28.4 °F 23.3 °F 15.8 °F 59% 30.24 in 10.0 mi WNW 4.6 mph - N/A   Clear
7:33 PM 24.8 °F - 15.8 °F 69% 30.24 in 10.0 mi Calm Calm - N/A   Clear
7:54 PM 23.0 °F - 14.0 °F 68% 30.24 in 10.0 mi Calm Calm - N/A   Clear
8:13 PM 21.2 °F 16.4 °F 12.2 °F 68% 30.24 in 10.0 mi West 3.5 mph - N/A   Clear
8:34 PM 23.0 °F 18.4 °F 14.0 °F 68% 30.25 in 10.0 mi West 3.5 mph - N/A   Clear
8:53 PM 21.2 °F - 14.0 °F 74% 30.25 in 10.0 mi Calm Calm - N/A   Clear
9:13 PM 17.6 °F - 10.4 °F 73% 30.25 in 10.0 mi Calm Calm - N/A   Clear
9:34 PM 19.4 °F - 12.2 °F 74% 30.26 in 10.0 mi Calm Calm - N/A   Clear
9:53 PM 17.6 °F - 10.4 °F 73% 30.26 in 10.0 mi Calm Calm - N/A   Clear
10:13 PM 17.6 °F 12.3 °F 10.4 °F 73% 30.26 in 10.0 mi West 3.5 mph - N/A   Clear
10:34 PM 15.8 °F - 10.4 °F 79% 30.27 in 10.0 mi Calm Calm - N/A   Clear
10:53 PM 17.6 °F 12.3 °F 10.4 °F 73% 30.27 in 10.0 mi WNW 3.5 mph - N/A   Clear
11:13 PM 17.6 °F - 10.4 °F 73% 30.27 in 10.0 mi Calm Calm - N/A   Clear
11:34 PM 17.6 °F - 12.2 °F 79% 30.27 in 10.0 mi Calm Calm - N/A   Clear
11:53 PM 12.2 °F - 8.6 °F 85% 30.28 in 10.0 mi Calm Calm - N/A   Clear